Burns, OR

5:06 AM PDT on August 28, 2016 (GMT -0700)
Burns Municipal

Weather History for KBNO - March, 2014

Change the Weather History Date:

Monday, March 17, 2014

  Actual Average Record
Temperature  
Mean Temperature 39 °F 38 °F  
Max Temperature 48 °F 50 °F 72 °F (1972)
Min Temperature 29 °F 26 °F 10 °F (1966)
Degree Days  
Heating Degree Days 26 27  
Month to date heating degree days 397 500  
Since 1 July heating degree days 5680 6028  
Cooling Degree Days 0 0  
Month to date cooling degree days 0 0  
Year to date cooling degree days 0 0  
Moisture  
Dew Point 19 °F    
Average Humidity 58    
Maximum Humidity 89    
Minimum Humidity 27    
Precipitation  
Precipitation 0.01 in 0.04 in 0.36 in (1993)
Month to date precipitation 0.76 0.63  
Year to date precipitation 2.88 2.84  
Sea Level Pressure  
Sea Level Pressure 30.06 in    
Wind  
Wind Speed 17 mph (West)    
Max Wind Speed 40 mph    
Max Gust Speed 52 mph    
Visibility 10 miles    
Events Rain    
T = Trace of Precipitation, MM = Missing Value Source: NWS Daily Summary

Daily Weather History Graph

Daily Weather History Graph

Search for Another Location

Airport or City:

Trip Planner

Search our weather history database for the weather conditions in past years. The results will help you decide how hot, cold, wet, or windy it might be!

Date:

Astronomy

Mar. 17, 2014 Rise Set
Actual Time 7:04 AM PDT 7:04 PM PDT
Civil Twilight 6:35 AM PDT 7:33 PM PDT
Nautical Twilight 6:02 AM PDT 8:06 PM PDT
Astronomical Twilight 5:28 AM PDT 8:40 PM PDT
Moon 8:29 PM PDT (3/17) 7:20 AM PDT (3/17)
Length of Visible Light 12h 57m
Length of Day
12h 00m
Full, 99% of the Moon is Illuminated
Mar 17
Full
Mar 23
Last Quarter
Mar 30
New
Apr 7
First Quarter
Apr 15
Full

Hourly Weather History & Observations

Time (PDT) Temp. Windchill Dew Point Humidity Pressure Visibility Wind Dir Wind Speed Gust Speed Precip Events Conditions
12:53 AM 48.0 °F - 19.9 °F 33% 29.76 in 10.0 mi WSW 25.3 mph 42.6 mph N/A   Clear
1:53 AM 37.9 °F 26.3 °F 34.0 °F 86% 29.81 in 10.0 mi SW 26.5 mph 44.9 mph 0.00 in Rain Light Rain
2:53 AM 37.0 °F 26.2 °F 33.1 °F 86% 29.79 in 10.0 mi SW 21.9 mph - 0.00 in   Overcast
3:53 AM 35.1 °F 23.3 °F 32.0 °F 89% 29.82 in 9.0 mi West 23.0 mph 31.1 mph 0.01 in   Overcast
4:53 AM 33.1 °F 20.9 °F 27.0 °F 78% 29.86 in 10.0 mi West 21.9 mph 32.2 mph N/A   Mostly Cloudy
5:53 AM 30.9 °F 18.7 °F 21.9 °F 69% 29.94 in 10.0 mi West 19.6 mph 27.6 mph N/A   Partly Cloudy
6:53 AM 28.9 °F 17.3 °F 21.0 °F 72% 29.99 in 10.0 mi West 16.1 mph 25.3 mph N/A   Partly Cloudy
7:53 AM 30.9 °F 20.7 °F 21.0 °F 67% 30.02 in 10.0 mi WSW 13.8 mph - N/A   Clear
8:53 AM 33.1 °F 20.6 °F 19.9 °F 59% 30.06 in 10.0 mi WSW 23.0 mph 28.8 mph N/A   Partly Cloudy
9:53 AM 35.1 °F 22.7 °F 18.0 °F 50% 30.08 in 10.0 mi West 25.3 mph 39.1 mph N/A   Clear
10:53 AM 37.0 °F 25.1 °F 16.0 °F 42% 30.09 in 10.0 mi West 26.5 mph 35.7 mph N/A   Clear
11:53 AM 39.9 °F 29.5 °F 15.1 °F 36% 30.09 in 10.0 mi West 24.2 mph 32.2 mph N/A   Clear
12:53 PM 41.0 °F 30.9 °F 15.1 °F 35% 30.10 in 10.0 mi West 24.2 mph 29.9 mph N/A   Partly Cloudy
1:53 PM 43.0 °F 35.1 °F 14.0 °F 31% 30.12 in 10.0 mi West 17.3 mph 34.5 mph N/A   Scattered Clouds
2:53 PM 44.1 °F 35.7 °F 12.9 °F 28% 30.12 in 10.0 mi WNW 20.7 mph 29.9 mph N/A   Scattered Clouds
3:53 PM 43.0 °F 36.8 °F 12.0 °F 28% 30.13 in 10.0 mi NW 11.5 mph 23.0 mph N/A   Partly Cloudy
4:53 PM 42.1 °F 34.5 °F 10.0 °F 27% 30.13 in 10.0 mi WNW 15.0 mph 26.5 mph N/A   Partly Cloudy
5:53 PM 42.1 °F 34.9 °F 12.0 °F 29% 30.14 in 10.0 mi WNW 13.8 mph - N/A   Partly Cloudy
6:53 PM 37.0 °F 29.3 °F 12.9 °F 37% 30.17 in 10.0 mi WNW 11.5 mph - N/A   Clear
7:53 PM 32.0 °F 24.8 °F 15.1 °F 50% 30.19 in 10.0 mi NW 8.1 mph - N/A   Clear
8:53 PM 30.9 °F 22.8 °F 17.1 °F 57% 30.21 in 10.0 mi WNW 9.2 mph - N/A   Mostly Cloudy
9:53 PM 30.0 °F 21.1 °F 17.1 °F 59% 30.21 in 10.0 mi WNW 10.4 mph - N/A   Scattered Clouds
10:53 PM 33.1 °F 23.9 °F 18.0 °F 54% 30.21 in 10.0 mi WNW 12.7 mph - N/A   Overcast
11:53 PM 32.0 °F 24.8 °F 18.0 °F 56% 30.22 in 10.0 mi NW 8.1 mph - N/A   Overcast